Location: Cuiry
(49.3858°N, 3.7708°E)
Time: 23:44:37
(UTC+00:00)

Cosmos 1470 Rocket - Pass Details

Date: 12 January 2026
Orbit: 597 x 626 km, 82.5° (Epoch: 9 February)

Event Time Altitude Azimuth Distance (km) Brightness Sun altitude
Rises 17:38:31 0° 351° (N) 2,857 6.9 -13.9°
Reaches altitude 10° 17:40:44 10° 354° (N) 1,952 6.0 -14.2°
Maximum altitude 17:45:03 70° 79° (E) 646 3.4 -14.9°
Drops below altitude 10° 17:49:20 10° 163° (SSE) 1,948 6.1 -15.6°
Sets 17:51:33 0° 166° (SSE) 2,851 7.0 -15.9°
